Time,TemperatureF,DewpointF,PressureIn,WindDirection,WindDirectionDegrees,WindSpeedMPH,WindSpeedGustMPH,Humidity,HourlyPrecipIn,Conditions,Clouds,dailyrainin,SoftwareType,DateUTC
2013-03-17 00:00:00,34.9,13.0,27.20,West,278,2.7,3.6,40,0.00,,SKC,0.00,VWS V14.01,2013-03-17 07:00:00,
2013-03-17 00:05:00,34.7,12.9,27.20,WSW,248,3.6,3.6,40,0.00,,SKC,0.00,VWS V14.01,2013-03-17 07:05:00,
2013-03-17 00:10:00,34.0,12.2,27.20,SSW,210,4.0,4.9,40,0.00,,SKC,0.00,VWS V14.01,2013-03-17 07:10:00,
2013-03-17 00:15:00,33.4,11.7,27.20,NW,313,4.0,4.9,40,0.00,,SKC,0.00,VWS V14.01,2013-03-17 07:15:00,
2013-03-17 00:20:00,33.1,12.0,27.20,SSE,159,2.7,3.1,41,0.00,,SKC,0.00,VWS V14.01,2013-03-17 07:20:00,
2013-03-17 00:26:00,32.5,11.5,27.20,NE,54,0.0,0.0,41,0.00,,SKC,0.00,VWS V14.01,2013-03-17 07:26:00,
2013-03-17 00:31:00,32.4,11.3,27.20,NE,51,0.0,3.1,41,0.00,,SKC,0.00,VWS V14.01,2013-03-17 07:31:00,
2013-03-17 00:36:00,32.2,11.1,27.20,NNW,344,4.0,5.8,41,0.00,,SKC,0.00,VWS V14.01,2013-03-17 07:36:00,
2013-03-17 00:41:00,32.2,11.1,27.20,NE,45,3.6,3.6,41,0.00,,SKC,0.00,VWS V14.01,2013-03-17 07:41:00,
2013-03-17 00:46:00,32.2,11.1,27.20,NE,51,0.0,5.8,41,0.00,,SKC,0.00,VWS V14.01,2013-03-17 07:46:00,
2013-03-17 00:52:00,32.2,11.1,27.20,SSW,207,5.4,8.7,41,0.00,,SKC,0.00,VWS V14.01,2013-03-17 07:52:00,
2013-03-17 00:57:00,32.2,10.6,27.20,SSW,213,12.3,12.3,40,0.00,,SKC,0.00,VWS V14.01,2013-03-17 07:57:00,
2013-03-17 01:02:00,31.8,10.3,27.23,South,180,2.7,5.8,40,0.00,,SKC,0.00,VWS V14.01,2013-03-17 08:02:00,
2013-03-17 01:07:00,31.5,9.9,27.23,SSE,162,2.2,5.8,40,0.00,,SKC,0.00,VWS V14.01,2013-03-17 08:07:00,
2013-03-17 01:12:00,31.3,9.8,27.23,NW,312,3.6,8.7,40,0.00,,SKC,0.00,VWS V14.01,2013-03-17 08:12:00,
2013-03-17 01:17:00,31.1,9.6,27.23,South,181,5.8,6.3,40,0.00,,SKC,0.00,VWS V14.01,2013-03-17 08:17:00,
2013-03-17 01:22:00,31.1,9.6,27.23,NNW,331,3.6,5.4,40,0.00,,SKC,0.00,VWS V14.01,2013-03-17 08:22:00,
2013-03-17 01:27:00,31.3,9.8,27.23,NE,50,0.0,8.7,40,0.00,,SKC,0.00,VWS V14.01,2013-03-17 08:27:00,
2013-03-17 01:32:00,31.1,9.6,27.20,South,185,4.9,6.3,40,0.00,,SKC,0.00,VWS V14.01,2013-03-17 08:32:00,
2013-03-17 01:38:00,31.6,9.5,27.20,NW,309,11.9,11.9,39,0.00,,SKC,0.00,VWS V14.01,2013-03-17 08:38:00,
2013-03-17 01:43:00,31.5,8.8,27.20,NNW,334,2.7,7.6,38,0.00,,SKC,0.00,VWS V14.01,2013-03-17 08:43:00,
2013-03-17 01:48:00,31.5,8.8,27.23,NW,322,3.1,9.6,38,0.00,,SKC,0.00,VWS V14.01,2013-03-17 08:48:00,
2013-03-17 01:53:00,31.3,8.6,27.23,SSE,157,6.3,6.3,38,0.00,,SKC,0.00,VWS V14.01,2013-03-17 08:53:00,
2013-03-17 01:58:00,31.8,9.1,27.23,WSW,237,2.7,8.3,38,0.00,,SKC,0.00,VWS V14.01,2013-03-17 08:58:00,
2013-03-17 02:03:00,31.6,8.4,27.23,East,84,3.6,5.4,37,0.00,,SKC,0.00,VWS V14.01,2013-03-17 09:03:00,
2013-03-17 02:08:00,31.8,8.5,27.23,South,191,6.3,8.3,37,0.00,,SKC,0.00,VWS V14.01,2013-03-17 09:08:00,
2013-03-17 02:13:00,31.6,9.0,27.23,SE,145,3.1,5.8,38,0.00,,SKC,0.00,VWS V14.01,2013-03-17 09:13:00,
2013-03-17 02:18:00,31.8,9.1,27.23,SSE,167,5.8,10.5,38,0.00,,SKC,0.00,VWS V14.01,2013-03-17 09:18:00,
2013-03-17 02:24:00,31.5,8.8,27.23,South,189,5.8,10.1,38,0.00,,SKC,0.00,VWS V14.01,2013-03-17 09:24:00,
2013-03-17 02:29:00,31.3,8.6,27.23,SSE,168,3.1,6.3,38,0.00,,SKC,0.00,VWS V14.01,2013-03-17 09:29:00,
2013-03-17 02:34:00,31.1,9.6,27.23,South,177,5.8,8.7,40,0.00,,SKC,0.00,VWS V14.01,2013-03-17 09:34:00,
2013-03-17 02:39:00,30.9,9.4,27.23,West,265,3.1,8.7,40,0.00,,SKC,0.00,VWS V14.01,2013-03-17 09:39:00,
2013-03-17 02:44:00,30.7,9.3,27.23,NE,50,4.9,8.3,40,0.00,,SKC,0.00,VWS V14.01,2013-03-17 09:44:00,
2013-03-17 02:49:00,30.4,9.0,27.23,South,180,2.7,12.3,40,0.00,,SKC,0.00,VWS V14.01,2013-03-17 09:49:00,
2013-03-17 02:54:00,30.4,9.0,27.23,East,96,4.9,10.1,40,0.00,,SKC,0.00,VWS V14.01,2013-03-17 09:54:00,
2013-03-17 02:59:00,30.2,9.4,27.23,WSW,257,5.8,7.2,41,0.00,,SKC,0.00,VWS V14.01,2013-03-17 09:59:00,
2013-03-17 03:04:00,30.2,9.4,27.23,West,260,5.4,6.3,41,0.00,,SKC,0.00,VWS V14.01,2013-03-17 10:04:00,
2013-03-17 03:10:00,29.8,9.0,27.23,WNW,285,3.1,7.2,41,0.00,,SKC,0.00,VWS V14.01,2013-03-17 10:10:00,
2013-03-17 03:15:00,29.5,9.2,27.26,NE,40,2.7,8.1,42,0.00,,SKC,0.00,VWS V14.01,2013-03-17 10:15:00,
2013-03-17 03:20:00,29.1,8.9,27.26,SSE,150,0.0,0.0,42,0.00,,SKC,0.00,VWS V14.01,2013-03-17 10:20:00,
2013-03-17 03:25:00,29.1,9.4,27.26,NE,53,0.0,8.3,43,0.00,,SKC,0.00,VWS V14.01,2013-03-17 10:25:00,
2013-03-17 03:30:00,28.9,9.3,27.26,SE,140,3.6,5.4,43,0.00,,SKC,0.00,VWS V14.01,2013-03-17 10:30:00,
2013-03-17 03:35:00,28.8,9.6,27.26,WSW,239,2.7,5.4,44,0.00,,SKC,0.00,VWS V14.01,2013-03-17 10:35:00,
2013-03-17 03:40:00,28.9,10.3,27.26,ESE,119,3.6,6.3,45,0.00,,SKC,0.00,VWS V14.01,2013-03-17 10:40:00,
2013-03-17 03:45:00,29.3,10.6,27.26,NNW,337,3.1,3.1,45,0.00,,SKC,0.00,VWS V14.01,2013-03-17 10:45:00,
2013-03-17 03:50:00,29.7,10.4,27.26,North,7,0.0,0.0,44,0.00,,SKC,0.00,VWS V14.01,2013-03-17 10:50:00,
2013-03-17 03:55:00,29.8,10.6,27.26,SSE,160,0.0,0.0,44,0.00,,SKC,0.00,VWS V14.01,2013-03-17 10:55:00,
2013-03-17 04:01:00,30.0,10.8,27.23,ESE,123,3.1,6.3,44,0.00,,SKC,0.00,VWS V14.01,2013-03-17 11:01:00,
2013-03-17 04:06:00,30.0,10.8,27.23,SSW,207,3.1,5.4,44,0.00,,SKC,0.00,VWS V14.01,2013-03-17 11:06:00,
2013-03-17 04:11:00,30.0,10.2,27.23,SSW,196,4.0,6.7,43,0.00,,SKC,0.00,VWS V14.01,2013-03-17 11:11:00,
2013-03-17 04:17:00,29.8,10.1,27.26,NW,311,6.3,6.3,43,0.00,,SKC,0.00,VWS V14.01,2013-03-17 11:17:00,
2013-03-17 04:22:00,29.5,10.3,27.26,NW,313,0.0,4.9,44,0.00,,SKC,0.00,VWS V14.01,2013-03-17 11:22:00,
2013-03-17 04:27:00,29.3,10.1,27.26,SW,236,3.6,5.8,44,0.00,,SKC,0.00,VWS V14.01,2013-03-17 11:27:00,
2013-03-17 04:32:00,29.3,9.6,27.26,NNE,18,5.4,6.3,43,0.00,,SKC,0.00,VWS V14.01,2013-03-17 11:32:00,
2013-03-17 04:37:00,28.9,9.8,27.26,SW,227,2.7,5.4,44,0.00,,SKC,0.00,VWS V14.01,2013-03-17 11:37:00,
2013-03-17 04:42:00,28.8,9.6,27.26,NNE,33,5.8,7.2,44,0.00,,SKC,0.00,VWS V14.01,2013-03-17 11:42:00,
2013-03-17 04:47:00,28.8,9.6,27.26,NW,316,3.6,5.8,44,0.00,,SKC,0.00,VWS V14.01,2013-03-17 11:47:00,
2013-03-17 04:52:00,28.8,9.6,27.26,ENE,78,2.7,5.8,44,0.00,,SKC,0.00,VWS V14.01,2013-03-17 11:52:00,
2013-03-17 04:57:00,28.6,9.9,27.26,East,91,3.6,5.8,45,0.00,,SKC,0.00,VWS V14.01,2013-03-17 11:57:00,
2013-03-17 05:02:00,28.4,10.3,27.26,ENE,78,2.7,5.8,46,0.00,,SKC,0.00,VWS V14.01,2013-03-17 12:02:00,
2013-03-17 05:07:00,28.4,10.3,27.26,NW,308,3.1,4.9,46,0.00,,SKC,0.00,VWS V14.01,2013-03-17 12:07:00,
2013-03-17 05:12:00,28.2,10.6,27.26,WNW,282,8.3,8.3,47,0.00,,SKC,0.00,VWS V14.01,2013-03-17 12:12:00,
2013-03-17 05:18:00,28.0,10.4,27.26,North,1,3.1,5.4,47,0.00,,SKC,0.00,VWS V14.01,2013-03-17 12:18:00,
2013-03-17 05:23:00,28.0,10.4,27.26,SW,234,3.6,4.0,47,0.00,,SKC,0.00,VWS V14.01,2013-03-17 12:23:00,
2013-03-17 05:28:00,28.0,10.9,27.26,ESE,113,2.7,4.0,48,0.00,,SKC,0.00,VWS V14.01,2013-03-17 12:28:00,
2013-03-17 05:33:00,28.0,10.9,27.26,SE,126,4.0,5.8,48,0.00,,SKC,0.00,VWS V14.01,2013-03-17 12:33:00,
2013-03-17 05:38:00,28.2,11.1,27.26,NW,321,4.0,6.3,48,0.00,,SKC,0.00,VWS V14.01,2013-03-17 12:38:00,
2013-03-17 05:43:00,28.2,11.1,27.26,ENE,57,3.1,5.4,48,0.00,,SKC,0.00,VWS V14.01,2013-03-17 12:43:00,
2013-03-17 05:48:00,28.4,11.2,27.29,NW,321,4.0,5.4,48,0.00,,SKC,0.00,VWS V14.01,2013-03-17 12:48:00,
2013-03-17 05:53:00,28.6,10.4,27.29,WNW,286,5.4,5.8,46,0.00,,SKC,0.00,VWS V14.01,2013-03-17 12:53:00,
2013-03-17 05:59:00,28.8,10.6,27.29,SE,146,5.4,5.8,46,0.00,,SKC,0.00,VWS V14.01,2013-03-17 12:59:00,
2013-03-17 06:04:00,28.9,10.8,27.29,SSW,195,2.2,5.4,46,0.00,,SKC,0.00,VWS V14.01,2013-03-17 13:04:00,
2013-03-17 06:09:00,28.9,10.8,27.29,North,2,3.1,4.9,46,0.00,,SKC,0.00,VWS V14.01,2013-03-17 13:09:00,
2013-03-17 06:14:00,28.8,10.6,27.29,ESE,109,4.0,8.1,46,0.00,,SKC,0.00,VWS V14.01,2013-03-17 13:14:00,
2013-03-17 06:19:00,28.4,10.3,27.29,NE,48,4.0,5.8,46,0.00,,SKC,0.00,VWS V14.01,2013-03-17 13:19:00,
2013-03-17 06:24:00,28.0,10.4,27.29,SE,133,3.1,5.4,47,0.00,,SKC,0.00,VWS V14.01,2013-03-17 13:24:00,
2013-03-17 06:29:00,27.9,10.7,27.29,SSE,161,2.7,5.4,48,0.00,,SKC,0.00,VWS V14.01,2013-03-17 13:29:00,
2013-03-17 06:34:00,27.9,10.7,27.29,ESE,104,2.2,5.8,48,0.00,,SKC,0.00,VWS V14.01,2013-03-17 13:34:00,
2013-03-17 06:39:00,27.9,11.2,27.29,East,80,3.1,5.4,49,0.00,,SKC,0.00,VWS V14.01,2013-03-17 13:39:00,
2013-03-17 06:44:00,28.0,11.4,27.29,NE,37,0.0,6.3,49,0.00,,SKC,0.00,VWS V14.01,2013-03-17 13:44:00,
2013-03-17 06:49:00,28.2,11.5,27.29,East,80,0.0,5.8,49,0.00,,SKC,0.00,VWS V14.01,2013-03-17 13:49:00,
2013-03-17 06:54:00,28.4,11.2,27.29,South,172,3.6,8.3,48,0.00,,SKC,0.00,VWS V14.01,2013-03-17 13:54:00,
2013-03-17 07:00:00,28.4,11.7,27.32,East,97,3.6,5.8,49,0.00,,SKC,0.00,VWS V14.01,2013-03-17 14:00:00,
2013-03-17 07:05:00,28.6,11.4,27.32,ENE,62,4.9,4.9,48,0.00,,SKC,0.00,VWS V14.01,2013-03-17 14:05:00,
2013-03-17 07:10:00,28.6,10.9,27.32,SSE,159,2.7,2.7,47,0.00,,SKC,0.00,VWS V14.01,2013-03-17 14:10:00,
2013-03-17 07:15:00,28.6,10.9,27.32,ESE,111,3.6,3.6,47,0.00,,SKC,0.00,VWS V14.01,2013-03-17 14:15:00,
2013-03-17 07:20:00,28.8,11.1,27.32,NNW,338,3.1,3.1,47,0.00,,SKC,0.00,VWS V14.01,2013-03-17 14:20:00,
2013-03-17 07:25:00,28.9,11.2,27.32,SSE,152,3.1,4.0,47,0.00,,SKC,0.00,VWS V14.01,2013-03-17 14:25:00,
2013-03-17 07:30:00,29.1,11.4,27.32,East,88,4.0,4.9,47,0.00,,SKC,0.00,VWS V14.01,2013-03-17 14:30:00,
2013-03-17 07:36:00,29.3,11.6,27.32,SE,125,3.1,4.0,47,0.00,,SKC,0.00,VWS V14.01,2013-03-17 14:36:00,
2013-03-17 07:41:00,29.3,11.6,27.32,SE,128,2.7,4.0,47,0.00,,SKC,0.00,VWS V14.01,2013-03-17 14:41:00,
2013-03-17 07:46:00,29.3,11.6,27.34,East,101,3.1,4.0,47,0.00,,SKC,0.00,VWS V14.01,2013-03-17 14:46:00,
2013-03-17 07:51:00,29.5,11.3,27.34,SE,134,3.1,4.0,46,0.00,,SKC,0.00,VWS V14.01,2013-03-17 14:51:00,
2013-03-17 07:56:00,29.7,10.9,27.34,NE,56,3.6,4.0,45,0.00,,SKC,0.00,VWS V14.01,2013-03-17 14:56:00,
2013-03-17 08:01:00,29.7,10.9,27.34,SSW,203,8.1,8.1,45,0.00,,SKC,0.00,VWS V14.01,2013-03-17 15:01:00,
2013-03-17 08:07:00,30.0,10.8,27.34,ENE,69,6.3,6.3,44,0.00,,SKC,0.00,VWS V14.01,2013-03-17 15:07:00,
2013-03-17 08:12:00,30.2,10.9,27.34,SSE,158,3.1,4.9,44,0.00,,SKC,0.00,VWS V14.01,2013-03-17 15:12:00,
2013-03-17 08:17:00,30.4,10.6,27.34,NE,44,3.1,5.4,43,0.00,,SKC,0.00,VWS V14.01,2013-03-17 15:17:00,
2013-03-17 08:22:00,30.6,10.7,27.34,SE,133,3.1,6.3,43,0.00,,SKC,0.00,VWS V14.01,2013-03-17 15:22:00,
2013-03-17 08:27:00,30.7,10.9,27.34,ESE,104,2.7,5.4,43,0.00,,SKC,0.00,VWS V14.01,2013-03-17 15:27:00,
2013-03-17 08:32:00,30.6,10.7,27.34,ESE,112,5.8,5.8,43,0.00,,SKC,0.00,VWS V14.01,2013-03-17 15:32:00,
2013-03-17 08:37:00,30.7,10.4,27.34,West,261,5.8,6.7,42,0.00,,SKC,0.00,VWS V14.01,2013-03-17 15:37:00,
2013-03-17 08:42:00,30.9,10.5,27.34,SW,227,8.1,8.3,42,0.00,,SKC,0.00,VWS V14.01,2013-03-17 15:42:00,
2013-03-17 08:48:00,30.7,10.4,27.34,NW,321,3.1,5.4,42,0.00,,SKC,0.00,VWS V14.01,2013-03-17 15:48:00,
2013-03-17 08:53:00,30.7,10.4,27.34,East,91,2.7,4.0,42,0.00,,SKC,0.00,VWS V14.01,2013-03-17 15:53:00,
2013-03-17 08:58:00,30.4,10.1,27.34,South,175,3.6,8.3,42,0.00,,SKC,0.00,VWS V14.01,2013-03-17 15:58:00,
2013-03-17 09:03:00,30.9,10.5,27.37,ESE,107,4.0,5.4,42,0.00,,SKC,0.00,VWS V14.01,2013-03-17 16:03:00,
2013-03-17 09:08:00,32.4,11.3,27.37,South,189,2.2,5.4,41,0.00,,SKC,0.00,VWS V14.01,2013-03-17 16:08:00,
2013-03-17 09:14:00,33.1,12.0,27.37,SW,227,2.2,4.9,41,0.00,,SKC,0.00,VWS V14.01,2013-03-17 16:14:00,
2013-03-17 09:19:00,33.4,12.3,27.37,SSW,194,0.0,6.3,41,0.00,,SKC,0.00,VWS V14.01,2013-03-17 16:19:00,
2013-03-17 09:24:00,34.0,12.2,27.37,South,169,4.0,5.8,40,0.00,,SKC,0.00,VWS V14.01,2013-03-17 16:24:00,
2013-03-17 09:29:00,34.3,12.5,27.37,WSW,238,5.8,8.3,40,0.00,,SKC,0.00,VWS V14.01,2013-03-17 16:29:00,
2013-03-17 09:34:00,34.5,12.7,27.37,ESE,120,0.0,6.3,40,0.00,,SKC,0.00,VWS V14.01,2013-03-17 16:34:00,
2013-03-17 09:39:00,35.1,12.6,27.37,SSE,159,2.7,6.7,39,0.00,,SKC,0.00,VWS V14.01,2013-03-17 16:39:00,
2013-03-17 09:45:00,35.1,12.0,27.37,WNW,289,3.1,5.4,38,0.00,,SKC,0.00,VWS V14.01,2013-03-17 16:45:00,
2013-03-17 09:50:00,35.8,9.5,27.37,WNW,295,6.3,8.7,33,0.00,,SKC,0.00,VWS V14.01,2013-03-17 16:50:00,
2013-03-17 09:55:00,36.1,9.8,27.37,NW,310,5.4,8.7,33,0.00,,SKC,0.00,VWS V14.01,2013-03-17 16:55:00,
2013-03-17 10:00:00,36.7,10.3,27.37,NW,304,4.0,9.6,33,0.00,,SKC,0.00,VWS V14.01,2013-03-17 17:00:00,
2013-03-17 10:05:00,36.9,9.8,27.37,WNW,292,5.4,10.5,32,0.00,,SKC,0.00,VWS V14.01,2013-03-17 17:05:00,
2013-03-17 10:10:00,37.4,9.5,27.37,West,265,7.6,8.3,31,0.00,,SKC,0.00,VWS V14.01,2013-03-17 17:10:00,
2013-03-17 10:15:00,37.6,9.7,27.37,North,2,3.1,3.6,31,0.00,,SKC,0.00,VWS V14.01,2013-03-17 17:15:00,
2013-03-17 10:20:00,37.9,9.3,27.37,West,272,14.5,14.5,30,0.00,,SKC,0.00,VWS V14.01,2013-03-17 17:20:00,
2013-03-17 10:25:00,38.1,9.4,27.37,WNW,282,6.3,6.3,30,0.00,,SKC,0.00,VWS V14.01,2013-03-17 17:25:00,
2013-03-17 10:31:00,38.3,9.6,27.37,ENE,71,3.1,5.4,30,0.00,,SKC,0.00,VWS V14.01,2013-03-17 17:31:00,
2013-03-17 10:36:00,38.7,9.9,27.37,SW,231,8.1,12.8,30,0.00,,SKC,0.00,VWS V14.01,2013-03-17 17:36:00,
2013-03-17 10:41:00,38.5,9.8,27.37,SSE,160,3.1,8.1,30,0.00,,SKC,0.00,VWS V14.01,2013-03-17 17:41:00,
2013-03-17 10:47:00,38.8,10.1,27.40,South,189,10.1,10.1,30,0.00,,SKC,0.00,VWS V14.01,2013-03-17 17:47:00,
2013-03-17 10:52:00,39.4,9.8,27.40,SSW,199,3.1,5.8,29,0.00,,SKC,0.00,VWS V14.01,2013-03-17 17:52:00,
2013-03-17 10:57:00,39.9,10.2,27.40,WSW,243,6.3,10.1,29,0.00,,SKC,0.00,VWS V14.01,2013-03-17 17:57:00,
2013-03-17 11:02:00,39.4,9.8,27.40,SSW,205,4.0,8.7,29,0.00,,SKC,0.00,VWS V14.01,2013-03-17 18:02:00,
2013-03-17 11:07:00,38.7,9.2,27.40,WSW,241,4.9,10.1,29,0.00,,SKC,0.00,VWS V14.01,2013-03-17 18:07:00,
2013-03-17 11:12:00,38.7,9.2,27.40,NNW,343,2.2,12.8,29,0.00,,SKC,0.00,VWS V14.01,2013-03-17 18:12:00,
2013-03-17 11:17:00,38.8,9.3,27.40,SSW,194,3.6,6.3,29,0.00,,SKC,0.00,VWS V14.01,2013-03-17 18:17:00,
2013-03-17 11:22:00,40.6,10.1,27.40,NW,305,3.6,11.0,28,0.00,,SKC,0.00,VWS V14.01,2013-03-17 18:22:00,
2013-03-17 11:27:00,42.1,9.7,27.40,NW,317,5.4,13.2,26,0.00,,SKC,0.00,VWS V14.01,2013-03-17 18:27:00,
2013-03-17 11:32:00,42.6,10.1,27.40,North,3,6.3,8.3,26,0.00,,SKC,0.00,VWS V14.01,2013-03-17 18:32:00,
2013-03-17 11:37:00,42.6,10.1,27.40,WSW,255,7.6,12.3,26,0.00,,SKC,0.00,VWS V14.01,2013-03-17 18:37:00,
2013-03-17 11:42:00,42.4,7.3,27.40,NW,313,5.8,12.3,23,0.00,,SKC,0.00,VWS V14.01,2013-03-17 18:42:00,
2013-03-17 11:48:00,42.4,7.3,27.40,SSW,207,6.3,9.2,23,0.00,,SKC,0.00,VWS V14.01,2013-03-17 18:48:00,
2013-03-17 11:53:00,42.4,7.3,27.40,NNW,332,3.6,8.1,23,0.00,,SKC,0.00,VWS V14.01,2013-03-17 18:53:00,
2013-03-17 11:58:00,42.8,7.6,27.40,SSE,161,9.6,9.6,23,0.00,,SKC,0.00,VWS V14.01,2013-03-17 18:58:00,
2013-03-17 12:03:00,44.2,8.8,27.40,North,1,3.6,8.1,23,0.00,,SKC,0.00,VWS V14.01,2013-03-17 19:03:00,
2013-03-17 12:08:00,44.4,8.9,27.40,WNW,288,7.2,11.0,23,0.00,,SKC,0.00,VWS V14.01,2013-03-17 19:08:00,
2013-03-17 12:13:00,44.1,5.6,27.40,WSW,241,7.6,11.0,20,0.00,,SKC,0.00,VWS V14.01,2013-03-17 19:13:00,
2013-03-17 12:18:00,44.1,8.6,27.40,NE,56,2.7,8.7,23,0.00,,SKC,0.00,VWS V14.01,2013-03-17 19:18:00,
2013-03-17 12:23:00,43.9,5.4,27.40,North,357,2.7,12.8,20,0.00,,SKC,0.00,VWS V14.01,2013-03-17 19:23:00,
2013-03-17 12:28:00,44.4,5.9,27.40,NW,318,13.6,13.6,20,0.00,,SKC,0.00,VWS V14.01,2013-03-17 19:28:00,
2013-03-17 12:34:00,43.5,5.1,27.40,WNW,282,5.4,11.0,20,0.00,,SKC,0.00,VWS V14.01,2013-03-17 19:34:00,
2013-03-17 12:39:00,43.5,5.1,27.40,NW,304,2.2,8.3,20,0.00,,SKC,0.00,VWS V14.01,2013-03-17 19:39:00,
2013-03-17 12:44:00,43.9,5.4,27.40,WSW,252,8.3,15.0,20,0.00,,SKC,0.00,VWS V14.01,2013-03-17 19:44:00,
2013-03-17 12:49:00,43.3,5.0,27.40,NNW,337,3.6,8.3,20,0.00,,SKC,0.00,VWS V14.01,2013-03-17 19:49:00,
2013-03-17 12:54:00,43.7,5.3,27.40,NW,322,4.0,15.0,20,0.00,,SKC,0.00,VWS V14.01,2013-03-17 19:54:00,
2013-03-17 12:59:00,44.1,5.6,27.40,WNW,294,5.4,8.1,20,0.00,,SKC,0.00,VWS V14.01,2013-03-17 19:59:00,
2013-03-17 13:04:00,46.0,7.2,27.40,West,280,7.6,8.3,20,0.00,,SKC,0.00,VWS V14.01,2013-03-17 20:04:00,
2013-03-17 13:09:00,46.6,6.5,27.40,NW,304,8.3,8.3,19,0.00,,SKC,0.00,VWS V14.01,2013-03-17 20:09:00,
2013-03-17 13:14:00,45.9,7.1,27.40,East,85,13.2,13.2,20,0.00,,SKC,0.00,VWS V14.01,2013-03-17 20:14:00,
2013-03-17 13:19:00,43.0,4.7,27.40,NNW,346,8.7,13.6,20,0.00,,SKC,0.00,VWS V14.01,2013-03-17 20:19:00,
2013-03-17 13:25:00,41.2,4.2,27.40,NW,312,5.4,8.7,21,0.00,,SKC,0.00,VWS V14.01,2013-03-17 20:25:00,
2013-03-17 13:30:00,42.8,4.5,27.40,SW,228,5.4,12.8,20,0.00,,SKC,0.00,VWS V14.01,2013-03-17 20:30:00,
2013-03-17 13:35:00,44.2,5.7,27.40,NNW,346,5.8,12.3,20,0.00,,SKC,0.00,VWS V14.01,2013-03-17 20:35:00,
2013-03-17 13:40:00,44.6,6.0,27.40,SSE,149,5.8,5.8,20,0.00,,SKC,0.00,VWS V14.01,2013-03-17 20:40:00,
2013-03-17 13:45:00,44.8,6.2,27.43,West,272,11.4,11.4,20,0.00,,SKC,0.00,VWS V14.01,2013-03-17 20:45:00,
2013-03-17 13:50:00,46.4,6.4,27.43,NW,324,5.8,5.8,19,0.00,,SKC,0.00,VWS V14.01,2013-03-17 20:50:00,
2013-03-17 13:55:00,47.1,7.0,27.43,NNW,337,4.5,4.5,19,0.00,,SKC,0.00,VWS V14.01,2013-03-17 20:55:00,
2013-03-17 14:00:00,47.5,7.3,27.40,SW,226,10.5,10.5,19,0.00,,SKC,0.00,VWS V14.01,2013-03-17 21:00:00,
2013-03-17 14:05:00,47.8,7.6,27.40,West,273,11.0,11.0,19,0.00,,SKC,0.00,VWS V14.01,2013-03-17 21:05:00,
2013-03-17 14:11:00,48.7,8.3,27.40,NNE,19,4.0,7.2,19,0.00,,SKC,0.00,VWS V14.01,2013-03-17 21:11:00,
2013-03-17 14:16:00,48.9,8.5,27.40,SE,136,5.4,8.1,19,0.00,,SKC,0.00,VWS V14.01,2013-03-17 21:16:00,
2013-03-17 14:21:00,48.6,8.2,27.40,NW,305,8.7,15.0,19,0.00,,SKC,0.00,VWS V14.01,2013-03-17 21:21:00,
2013-03-17 14:27:00,47.3,7.1,27.40,North,6,2.2,6.7,19,0.00,,SKC,0.00,VWS V14.01,2013-03-17 21:27:00,
2013-03-17 14:32:00,46.2,7.4,27.40,SSE,168,6.3,9.6,20,0.00,,SKC,0.00,VWS V14.01,2013-03-17 21:32:00,
2013-03-17 14:37:00,45.9,7.1,27.40,NW,322,3.1,8.3,20,0.00,,SKC,0.00,VWS V14.01,2013-03-17 21:37:00,
2013-03-17 14:42:00,45.9,7.1,27.40,NNW,330,6.3,10.1,20,0.00,,SKC,0.00,VWS V14.01,2013-03-17 21:42:00,
2013-03-17 14:48:00,45.9,9.2,27.43,SSW,202,5.4,5.8,22,0.00,,SKC,0.00,VWS V14.01,2013-03-17 21:48:00,
2013-03-17 14:53:00,45.0,8.4,27.43,SSW,201,0.0,10.1,22,0.00,,SKC,0.00,VWS V14.01,2013-03-17 21:53:00,
2013-03-17 14:58:00,45.1,8.6,27.43,SSW,205,4.0,7.6,22,0.00,,SKC,0.00,VWS V14.01,2013-03-17 21:58:00,
2013-03-17 15:03:00,46.0,9.3,27.43,South,176,3.6,8.1,22,0.00,,SKC,0.00,VWS V14.01,2013-03-17 22:03:00,
2013-03-17 15:08:00,46.4,9.6,27.43,WNW,286,5.4,5.8,22,0.00,,SKC,0.00,VWS V14.01,2013-03-17 22:08:00,
2013-03-17 15:13:00,46.6,9.8,27.43,SW,224,5.4,8.7,22,0.00,,SKC,0.00,VWS V14.01,2013-03-17 22:13:00,
2013-03-17 15:18:00,45.9,7.1,27.40,South,186,5.8,9.6,20,0.00,,SKC,0.00,VWS V14.01,2013-03-17 22:18:00,
2013-03-17 15:23:00,44.2,5.7,27.40,SSE,167,3.6,6.3,20,0.00,,SKC,0.00,VWS V14.01,2013-03-17 22:23:00,
2013-03-17 15:28:00,43.5,5.1,27.40,SSE,168,3.6,8.7,20,0.00,,SKC,0.00,VWS V14.01,2013-03-17 22:28:00,
2013-03-17 15:34:00,44.1,5.6,27.43,WSW,250,8.1,8.1,20,0.00,,SKC,0.00,VWS V14.01,2013-03-17 22:34:00,
2013-03-17 15:39:00,44.1,5.6,27.43,South,177,2.7,6.7,20,0.00,,SKC,0.00,VWS V14.01,2013-03-17 22:39:00,
2013-03-17 15:44:00,44.1,5.6,27.43,SSW,198,5.4,10.1,20,0.00,,SKC,0.00,VWS V14.01,2013-03-17 22:44:00,
2013-03-17 15:49:00,42.4,7.3,27.43,WNW,297,2.7,7.2,23,0.00,,SKC,0.00,VWS V14.01,2013-03-17 22:49:00,
2013-03-17 15:54:00,42.4,7.3,27.43,South,182,5.8,5.8,23,0.00,,SKC,0.00,VWS V14.01,2013-03-17 22:54:00,
2013-03-17 15:59:00,42.6,7.4,27.43,SSE,168,3.6,5.8,23,0.00,,SKC,0.00,VWS V14.01,2013-03-17 22:59:00,
2013-03-17 16:04:00,43.0,7.7,27.43,WNW,288,0.0,5.8,23,0.00,,SKC,0.00,VWS V14.01,2013-03-17 23:04:00,
2013-03-17 16:09:00,43.3,5.0,27.43,WNW,290,4.0,6.7,20,0.00,,SKC,0.00,VWS V14.01,2013-03-17 23:09:00,
2013-03-17 16:14:00,42.8,4.5,27.43,SSE,151,4.0,7.2,20,0.00,,SKC,0.00,VWS V14.01,2013-03-17 23:14:00,
2013-03-17 16:20:00,42.4,5.3,27.43,North,353,0.0,8.7,21,0.00,,SKC,0.00,VWS V14.01,2013-03-17 23:20:00,
2013-03-17 16:25:00,42.8,7.6,27.43,NNW,331,3.1,10.5,23,0.00,,SKC,0.00,VWS V14.01,2013-03-17 23:25:00,
2013-03-17 16:30:00,43.5,8.2,27.43,SE,140,3.1,6.3,23,0.00,,SKC,0.00,VWS V14.01,2013-03-17 23:30:00,
2013-03-17 16:35:00,43.5,8.2,27.43,NW,319,0.0,7.6,23,0.00,,SKC,0.00,VWS V14.01,2013-03-17 23:35:00,
2013-03-17 16:40:00,43.2,7.9,27.43,West,272,2.2,3.1,23,0.00,,SKC,0.00,VWS V14.01,2013-03-17 23:40:00,
2013-03-17 16:45:00,43.5,8.2,27.43,NNE,23,3.1,3.1,23,0.00,,SKC,0.00,VWS V14.01,2013-03-17 23:45:00,
2013-03-17 16:50:00,44.4,8.9,27.43,SSW,193,5.4,5.4,23,0.00,,SKC,0.00,VWS V14.01,2013-03-17 23:50:00,
2013-03-17 16:55:00,44.4,5.9,27.43,SSE,160,7.6,7.6,20,0.00,,SKC,0.00,VWS V14.01,2013-03-17 23:55:00,
2013-03-17 17:00:00,41.7,4.7,27.43,NNW,332,5.4,6.7,21,0.00,,SKC,0.00,VWS V14.01,2013-03-18 00:00:00,
2013-03-17 17:05:00,41.0,4.1,27.43,NW,304,4.9,6.3,21,0.00,,SKC,0.00,VWS V14.01,2013-03-18 00:05:00,
2013-03-17 17:10:00,40.5,5.6,27.43,NNE,31,4.0,4.0,23,0.00,,SKC,0.00,VWS V14.01,2013-03-18 00:10:00,
2013-03-17 17:16:00,40.5,5.6,27.43,NNW,333,3.1,3.1,23,0.00,,SKC,0.00,VWS V14.01,2013-03-18 00:16:00,
2013-03-17 17:21:00,40.6,5.8,27.43,West,280,2.7,5.4,23,0.00,,SKC,0.00,VWS V14.01,2013-03-18 00:21:00,
2013-03-17 17:26:00,41.9,4.8,27.43,NNE,24,3.1,5.8,21,0.00,,SKC,0.00,VWS V14.01,2013-03-18 00:26:00,
2013-03-17 17:31:00,42.3,5.1,27.43,NNW,331,2.2,7.2,21,0.00,,SKC,0.00,VWS V14.01,2013-03-18 00:31:00,
2013-03-17 17:36:00,41.5,4.5,27.43,WNW,290,12.3,12.8,21,0.00,,SKC,0.00,VWS V14.01,2013-03-18 00:36:00,
2013-03-17 17:41:00,40.8,3.9,27.43,NNW,339,6.3,6.3,21,0.00,,SKC,0.00,VWS V14.01,2013-03-18 00:41:00,
2013-03-17 17:46:00,40.5,3.6,27.43,North,353,3.1,11.0,21,0.00,,SKC,0.00,VWS V14.01,2013-03-18 00:46:00,
2013-03-17 17:52:00,39.9,3.2,27.43,NW,315,3.1,5.8,21,0.00,,SKC,0.00,VWS V14.01,2013-03-18 00:52:00,
2013-03-17 17:57:00,39.7,3.0,27.43,NW,308,5.4,6.3,21,0.00,,SKC,0.00,VWS V14.01,2013-03-18 00:57:00,
2013-03-17 18:02:00,39.6,4.8,27.43,ENE,57,0.0,4.0,23,0.00,,SKC,0.00,VWS V14.01,2013-03-18 01:02:00,
2013-03-17 18:07:00,38.8,5.2,27.43,WSW,252,2.7,5.4,24,0.00,,SKC,0.00,VWS V14.01,2013-03-18 01:07:00,
2013-03-17 18:12:00,38.7,5.0,27.43,NW,320,2.7,3.1,24,0.00,,SKC,0.00,VWS V14.01,2013-03-18 01:12:00,
2013-03-17 18:17:00,38.5,4.8,27.43,SW,219,8.3,8.7,24,0.00,,SKC,0.00,VWS V14.01,2013-03-18 01:17:00,
2013-03-17 18:22:00,38.5,4.8,27.43,West,279,3.1,5.4,24,0.00,,SKC,0.00,VWS V14.01,2013-03-18 01:22:00,
2013-03-17 18:27:00,38.1,4.5,27.43,NE,54,2.7,5.4,24,0.00,,SKC,0.00,VWS V14.01,2013-03-18 01:27:00,
2013-03-17 18:32:00,37.9,4.4,27.43,NW,311,3.6,4.9,24,0.00,,SKC,0.00,VWS V14.01,2013-03-18 01:32:00,
2013-03-17 18:37:00,37.4,3.9,27.43,West,278,0.0,4.0,24,0.00,,SKC,0.00,VWS V14.01,2013-03-18 01:37:00,
2013-03-17 18:42:00,37.2,3.8,27.43,SSE,165,6.3,6.7,24,0.00,,SKC,0.00,VWS V14.01,2013-03-18 01:42:00,
2013-03-17 18:48:00,37.0,3.6,27.43,ESE,110,0.0,5.4,24,0.00,,SKC,0.00,VWS V14.01,2013-03-18 01:48:00,
2013-03-17 18:53:00,36.5,3.2,27.43,WNW,291,0.0,5.4,24,0.00,,SKC,0.00,VWS V14.01,2013-03-18 01:53:00,
2013-03-17 18:58:00,36.1,2.8,27.43,NW,316,3.1,4.9,24,0.00,,SKC,0.00,VWS V14.01,2013-03-18 01:58:00,
2013-03-17 19:03:00,36.1,2.8,27.43,NW,313,6.3,6.3,24,0.00,,SKC,0.00,VWS V14.01,2013-03-18 02:03:00,
2013-03-17 19:08:00,35.8,2.5,27.43,NNW,346,4.0,4.0,24,0.00,,SKC,0.00,VWS V14.01,2013-03-18 02:08:00,
2013-03-17 19:13:00,35.6,2.4,27.43,WNW,287,4.0,4.9,24,0.00,,SKC,0.00,VWS V14.01,2013-03-18 02:13:00,
2013-03-17 19:18:00,35.4,3.1,27.43,WSW,251,0.0,4.0,25,0.00,,SKC,0.00,VWS V14.01,2013-03-18 02:18:00,
2013-03-17 19:23:00,35.2,3.0,27.43,South,180,2.7,5.4,25,0.00,,SKC,0.00,VWS V14.01,2013-03-18 02:23:00,
2013-03-17 19:28:00,34.9,2.6,27.43,SSW,213,0.0,3.6,25,0.00,,SKC,0.00,VWS V14.01,2013-03-18 02:28:00,
2013-03-17 19:33:00,34.5,2.3,27.43,NNE,22,2.2,6.3,25,0.00,,SKC,0.00,VWS V14.01,2013-03-18 02:33:00,
2013-03-17 19:38:00,34.5,2.3,27.43,NNW,332,2.7,4.9,25,0.00,,SKC,0.00,VWS V14.01,2013-03-18 02:38:00,
2013-03-17 19:44:00,34.2,2.0,27.43,South,173,3.6,4.5,25,0.00,,SKC,0.00,VWS V14.01,2013-03-18 02:44:00,
2013-03-17 19:49:00,34.0,1.9,27.43,NNE,21,2.2,4.0,25,0.00,,SKC,0.00,VWS V14.01,2013-03-18 02:49:00,
2013-03-17 19:54:00,33.8,1.7,27.43,SSW,206,5.4,5.4,25,0.00,,SKC,0.00,VWS V14.01,2013-03-18 02:54:00,
2013-03-17 19:59:00,34.0,1.9,27.43,SSW,201,2.2,6.3,25,0.00,,SKC,0.00,VWS V14.01,2013-03-18 02:59:00,
2013-03-17 20:04:00,33.6,1.6,27.43,NW,321,4.0,6.3,25,0.00,,SKC,0.00,VWS V14.01,2013-03-18 03:04:00,
2013-03-17 20:13:00,33.3,3.7,27.43,West,275,4.0,5.8,28,0.00,,SKC,0.00,VWS V14.01,2013-03-18 03:13:00,
2013-03-17 20:18:00,33.1,3.5,27.43,East,89,0.0,5.8,28,0.00,,SKC,0.00,VWS V14.01,2013-03-18 03:18:00,
2013-03-17 20:23:00,32.9,3.4,27.43,NW,326,3.6,4.5,28,0.00,,SKC,0.00,VWS V14.01,2013-03-18 03:23:00,
2013-03-17 20:28:00,32.7,3.2,27.43,East,83,3.6,4.0,28,0.00,,SKC,0.00,VWS V14.01,2013-03-18 03:28:00,
2013-03-17 20:33:00,32.5,4.6,27.43,NNW,344,3.1,5.8,30,0.00,,SKC,0.00,VWS V14.01,2013-03-18 03:33:00,
2013-03-17 20:38:00,32.2,4.2,27.43,WSW,247,0.0,4.0,30,0.00,,SKC,0.00,VWS V14.01,2013-03-18 03:38:00,
2013-03-17 20:44:00,32.0,4.1,27.43,SSW,206,4.9,4.9,30,0.00,,SKC,0.00,VWS V14.01,2013-03-18 03:44:00,
2013-03-17 20:49:00,31.6,3.8,27.43,North,357,0.0,2.7,30,0.00,,SKC,0.00,VWS V14.01,2013-03-18 03:49:00,
2013-03-17 20:54:00,31.5,3.6,27.43,ESE,106,4.0,4.0,30,0.00,,SKC,0.00,VWS V14.01,2013-03-18 03:54:00,
2013-03-17 20:59:00,31.5,3.6,27.43,ENE,71,2.7,4.0,30,0.00,,SKC,0.00,VWS V14.01,2013-03-18 03:59:00,
2013-03-17 21:00:00,31.5,4.3,27.43,NNE,13,0.0,4.0,31,0.00,,SKC,0.00,VWS V14.01,2013-03-18 04:00:00,
2013-03-17 21:01:00,31.3,4.2,27.46,East,97,3.6,3.6,31,0.00,,SKC,0.00,VWS V14.01,2013-03-18 04:01:00,
2013-03-17 21:02:00,31.3,4.2,27.46,SE,126,3.1,3.6,31,0.00,,SKC,0.00,VWS V14.01,2013-03-18 04:02:00,
2013-03-17 21:07:00,31.1,4.0,27.46,SE,139,2.2,3.1,31,0.00,,SKC,0.00,VWS V14.01,2013-03-18 04:07:00,
2013-03-17 21:12:00,31.5,4.3,27.46,NNE,18,2.7,4.0,31,0.00,,SKC,0.00,VWS V14.01,2013-03-18 04:12:00,
2013-03-17 21:17:00,31.5,4.3,27.46,ESE,121,2.2,4.9,31,0.00,,SKC,0.00,VWS V14.01,2013-03-18 04:17:00,
2013-03-17 21:22:00,31.3,4.2,27.46,SSE,160,2.7,6.3,31,0.00,,SKC,0.00,VWS V14.01,2013-03-18 04:22:00,
2013-03-17 21:28:00,31.1,4.0,27.46,ESE,108,4.9,5.4,31,0.00,,SKC,0.00,VWS V14.01,2013-03-18 04:28:00,
2013-03-17 21:33:00,31.1,4.0,27.46,SSW,205,3.6,6.3,31,0.00,,SKC,0.00,VWS V14.01,2013-03-18 04:33:00,
2013-03-17 21:38:00,31.3,4.2,27.46,NNE,33,3.1,6.3,31,0.00,,SKC,0.00,VWS V14.01,2013-03-18 04:38:00,
2013-03-17 21:43:00,30.9,3.8,27.46,NNE,17,2.7,3.6,31,0.00,,SKC,0.00,VWS V14.01,2013-03-18 04:43:00,
2013-03-17 21:48:00,30.9,3.8,27.46,ENE,67,2.2,3.6,31,0.00,,SKC,0.00,VWS V14.01,2013-03-18 04:48:00,
2013-03-17 21:53:00,30.9,3.8,27.46,SSE,163,3.6,3.6,31,0.00,,SKC,0.00,VWS V14.01,2013-03-18 04:53:00,
2013-03-17 21:58:00,30.9,3.8,27.46,South,186,5.8,6.3,31,0.00,,SKC,0.00,VWS V14.01,2013-03-18 04:58:00,
2013-03-17 22:04:00,30.9,3.8,27.46,NNE,18,0.0,3.1,31,0.00,,SKC,0.00,VWS V14.01,2013-03-18 05:04:00,
2013-03-17 22:09:00,30.6,3.5,27.46,NW,316,3.6,5.8,31,0.00,,SKC,0.00,VWS V14.01,2013-03-18 05:09:00,
2013-03-17 22:14:00,30.2,3.2,27.46,ESE,117,3.1,4.0,31,0.00,,SKC,0.00,VWS V14.01,2013-03-18 05:14:00,
2013-03-17 22:19:00,29.7,3.4,27.46,SSE,152,2.2,4.9,32,0.00,,SKC,0.00,VWS V14.01,2013-03-18 05:19:00,
2013-03-17 22:24:00,29.3,3.1,27.46,East,90,2.7,4.9,32,0.00,,SKC,0.00,VWS V14.01,2013-03-18 05:24:00,
2013-03-17 22:29:00,28.9,3.5,27.46,ESE,106,4.0,4.0,33,0.00,,SKC,0.00,VWS V14.01,2013-03-18 05:29:00,
2013-03-17 22:34:00,28.6,3.1,27.46,ESE,116,2.7,4.9,33,0.00,,SKC,0.00,VWS V14.01,2013-03-18 05:34:00,
2013-03-17 22:39:00,28.2,3.5,27.46,East,90,0.0,4.0,34,0.00,,SKC,0.00,VWS V14.01,2013-03-18 05:39:00,
2013-03-17 22:44:00,27.9,3.2,27.46,East,95,0.0,3.6,34,0.00,,SKC,0.00,VWS V14.01,2013-03-18 05:44:00,
2013-03-17 22:49:00,27.7,3.6,27.46,NE,50,0.0,3.6,35,0.00,,SKC,0.00,VWS V14.01,2013-03-18 05:49:00,
2013-03-17 22:55:00,27.9,3.8,27.46,ENE,74,0.0,3.6,35,0.00,,SKC,0.00,VWS V14.01,2013-03-18 05:55:00,
2013-03-17 23:00:00,28.0,3.9,27.46,East,101,0.0,4.9,35,0.00,,SKC,0.00,VWS V14.01,2013-03-18 06:00:00,
2013-03-17 23:05:00,27.9,3.8,27.46,NNE,14,0.0,4.0,35,0.00,,SKC,0.00,VWS V14.01,2013-03-18 06:05:00,
2013-03-17 23:10:00,28.0,3.9,27.46,ENE,77,3.1,5.4,35,0.00,,SKC,0.00,VWS V14.01,2013-03-18 06:10:00,
2013-03-17 23:15:00,28.6,3.8,27.46,ENE,58,3.6,5.8,34,0.00,,SKC,0.00,VWS V14.01,2013-03-18 06:15:00,
2013-03-17 23:20:00,28.9,4.1,27.46,South,189,3.6,5.4,34,0.00,,SKC,0.00,VWS V14.01,2013-03-18 06:20:00,
2013-03-17 23:25:00,29.1,3.6,27.46,ESE,105,2.7,4.0,33,0.00,,SKC,0.00,VWS V14.01,2013-03-18 06:25:00,
2013-03-17 23:30:00,28.9,3.5,27.46,ESE,120,2.7,2.7,33,0.00,,SKC,0.00,VWS V14.01,2013-03-18 06:30:00,
2013-03-17 23:35:00,28.9,3.5,27.46,ESE,120,4.0,4.0,33,0.00,,SKC,0.00,VWS V14.01,2013-03-18 06:35:00,
2013-03-17 23:40:00,29.3,3.8,27.46,ENE,62,3.6,4.0,33,0.00,,SKC,0.00,VWS V14.01,2013-03-18 06:40:00,
2013-03-17 23:45:00,29.1,3.6,27.46,SE,127,3.6,3.6,33,0.00,,SKC,0.00,VWS V14.01,2013-03-18 06:45:00,
2013-03-17 23:50:00,29.1,3.6,27.46,East,82,2.2,2.7,33,0.00,,SKC,0.00,VWS V14.01,2013-03-18 06:50:00,
2013-03-17 23:55:00,29.1,3.6,27.46,SE,143,0.0,0.0,33,0.00,,SKC,0.00,VWS V14.01,2013-03-18 06:55:00,